Weather observations for the past three days for
Santa Maria Public Airport/Capt G Allan Hancock Field
Imperial (Metric)
Date Time (pdt) Wind (mph) Vis. (mi.) Weather Sky Cond. Temperature (ºF) Relative Humidity Wind Chill (°F) Heat Index (°F) Pressure Precipitation (in)
Air Dwpt 6 hour altimeter (in) sea level (mb) 1 hr 3 hr 6 hr
Max. Min.
04 11:51 NW 7 10.00 A Few Clouds FEW030 75.2 60.8 61% 77 29.95 0.0
04 10:51 N 3 10.00 A Few Clouds FEW025 73.4 55.4 53% 29.96 0.0
04 09:51 Calm 10.00 A Few Clouds FEW018 66.9 57 71% 29.96 1014.6
04 09:25 N 3 10.00 Mostly Cloudy BKN018 66.2 55.4 68% 29.96 0.0
04 08:51 NE 3 10.00 Overcast OVC018 64.9 55.9 73% 29.96 1014.5
04 07:51 E 3 10.00 Overcast OVC019 63 55.9 78% 29.95 1014.3
04 06:51 E 3 10.00 Overcast OVC018 62.1 57 84% 29.94 1013.9
04 05:51 Calm 10.00 Overcast OVC018 61 57 87% 29.93 1013.5
04 04:51 Calm 10.00 Overcast OVC021 61 57 61 57 87% 29.92 1013.4
04 03:51 Calm 10.00 Overcast OVC024 59 57 93% 29.93 1013.5
04 02:51 SE 3 10.00 Overcast OVC024 57 55.9 96% 29.92 1013.2
04 01:51 SE 3 8.00 Fair CLR 57 55.9 96% 29.92 1013.3
04 00:51 S 3 8.00 Fair CLR 57 55.9 96% 29.93 1013.7
03 23:51 Calm 7.00 Fair CLR 57.9 57 97% 29.94 1014.0
03 22:51 Calm 7.00 Fair CLR 57.9 57 69.1 57.9 97% 29.94 1013.9
03 21:51 W 3 8.00 Fair CLR 60.1 57.9 93% 29.94 1014.0
03 20:51 W 7 10.00 Overcast OVC008 62.1 59 90% 29.93 1013.5
03 19:51 W 7 10.00 A Few Clouds FEW010 62.1 57.9 86% 29.92 1013.4
03 18:51 W 8 G 21 10.00 Fair CLR 64.9 57 76% 29.91 1013.0
03 17:51 W 15 10.00 Fair CLR 68 55.9 65% 29.91 1013.1
03 16:51 NW 20 10.00 Fair CLR 69.1 57 73 66.9 66% 29.92 1013.2
03 15:51 W 17 G 25 10.00 Fair CLR 70 57 64% 29.93 1013.5
03 14:51 W 20 G 26 10.00 Fair CLR 71.1 57 61% 29.94 1013.9
03 13:51 W 17 10.00 Fair CLR 72 57 59% 29.95 1014.3
03 12:51 W 15 9.00 Fair CLR 71.1 55 57% 29.96 1014.5
03 11:51 W 9 9.00 Fair CLR 69.1 55.9 63% 29.97 1015.1
03 10:51 W 8 10.00 Fair CLR 66.9 55 66.9 55.9 66% 29.99 1015.5
03 09:51 W 8 10.00 Mostly Cloudy BKN015 64 55 73% 29.99 1015.7
03 08:51 W 6 10.00 Mostly Cloudy BKN012 62.1 55 78% 30 1015.9
03 07:51 Calm 9.00 Mostly Cloudy BKN010 57.2 55.4 94% 30 0.0
03 06:51 W 3 10.00 Overcast OVC009 57.9 55 90% 29.99 1015.7
03 05:51 Calm 10.00 Overcast OVC013 57 55 93% 29.99 1015.7
03 04:51 Calm 8.00 A Few Clouds FEW012 55.9 55 62.1 55.9 97% 29.99 1015.8
03 03:51 W 5 9.00 Fair CLR 57 55.9 96% 30 1015.9
03 02:51 NW 5 9.00 Overcast OVC012 59 57 93% 30.01 1016.3
03 01:51 Calm 8.00 Overcast BKN005 OVC010 57.9 57 97% 30.02 1016.6
03 00:51 NW 6 10.00 Fair CLR 59 57 93% 30.02 1016.8
02 23:51 W 7 10.00 Partly Cloudy SCT017 61 59 93% 30.03 1016.8
02 22:51 W 6 10.00 Overcast OVC012 62.1 59 71.1 61 90% 30.03 1017.1
02 21:51 NW 6 10.00 Fair CLR 61 59 93% 30.03 1017.2
02 20:51 NW 9 10.00 Fair CLR 62.1 60.1 93% 30.03 1016.8
02 19:51 NW 12 10.00 Fair CLR 63 60.1 90% 30.01 1016.3
02 18:51 NW 12 10.00 Fair CLR 66 59 78% 30.01 1016.3
02 17:51 W 17 G 25 10.00 Fair CLR 69.1 57.9 68% 30.01 1016.2
02 16:51 W 20 G 28 10.00 Fair CLR 71.1 57 75 70 61% 30 1016.1
02 15:51 NW 20 10.00 Fair CLR 71.1 57 61% 30.02 1016.7
02 14:51 NW 23 G 30 10.00 Fair and Breezy CLR 73 57 57% 30.02 1016.8
02 13:51 NW 18 G 28 9.00 Fair CLR 73.9 55 52% 30.03 1017.0
02 12:51 W 15 8.00 Fair CLR 73 52 48% 30.05 1017.5
02 11:51 W 10 7.00 Fair CLR 72 52 50% 30.06 1017.9
02 10:51 NW 9 7.00 Fair CLR 70 50 70 55 49% 30.07 1018.2
02 09:51 N 6 9.00 Fair CLR 66 50 56% 30.06 1018.1
02 08:51 Calm 9.00 Fair CLR 61 54 78% 30.06 1018.1
02 07:51 S 5 7.00 Partly Cloudy SCT006 57 54 90% 30.05 1017.9
02 06:51 Calm 6.00 Fog/Mist OVC005 55.9 54 93% 30.05 1017.8
02 05:51 Calm 6.00 Fog/Mist OVC005 55.9 54 93% 30.05 1017.6
02 04:51 Calm 9.00 Overcast OVC006 57 54 57 52 90% 30.04 1017.4
02 03:51 E 5 10.00 Overcast OVC007 55 53.1 93% 30.04 1017.2
02 02:51 Calm 8.00 Overcast OVC011 53.1 52 96% 30.04 1017.5
02 01:51 Calm 9.00 Fair CLR 54 52 93% 30.05 1017.6
02 00:51 S 5 8.00 Fair CLR 54 53.1 97% 30.04 1017.5
01 23:51 Calm 8.00 Fair CLR 55.9 54 93% 30.04 1017.5
01 22:51 Calm 8.00 Fair CLR 57 55 68 57 93% 30.04 1017.4
01 21:51 NW 5 9.00 Fair CLR 57.9 55 90% 30.05 1017.7
01 20:51 NW 7 9.00 Fair CLR 59 55.9 90% 30.03 1017.1
01 19:51 NW 8 10.00 Fair CLR 61 55.9 84% 30.02 1016.7
01 18:51 NW 13 G 22 10.00 Fair CLR 63 54 73% 30.01 1016.4
01 17:51 NW 15 G 24 10.00 Fair CLR 66 52 61% 30 1016.0
01 16:51 W 17 10.00 Fair CLR 68 51.1 71.1 66.9 55% 30 1016.1
01 15:51 W 15 10.00 Fair CLR 69.1 52 55% 30.01 1016.3
01 14:51 NW 18 10.00 Fair CLR 70 52 53% 30.02 1016.7
01 13:51 NW 14 G 23 10.00 Fair CLR 71.1 52 51% 30.02 1016.7
01 12:51 W 13 10.00 Fair CLR 70 51.1 51% 30.04 1017.2
Date Time (pdt) Wind (mph) Vis. (mi.) Weather Sky Cond. Air Dwpt Max. Min. Relative Humidity Wind Chill (°F) Heat Index (°F) altimeter (in) sea level (mb) 1 hr 3 hr 6 hr
6 hour
Temperature (ºF) Pressure Precipitation (in)